Regional Weather Roundup
Issued by NWS

Home | Current Version | Previous Version | Text Only | Print | Product List | Glossary Off
Versions: 1 2 3 4 5 6 7 8 9 10 11 12 13 14 15 16 17 18 19 20 21 22 23 24 25 26 27 28 29 30 31 32 33 34 35 36 37 38 39 40 41 42 43 44 45 46 47 48 49 50

000
ASUS43 KMPX 231201
RWRMN
WEATHER ROUNDUP FOR MINNESOTA
NATIONAL WEATHER SERVICE TWIN CITIES/CHANHASSEN MN
700 AM CDT SAT SEP 23 2017


NOTE: "FAIR" INDICATES FEW OR NO CLOUDS BELOW 12,000 FEET WITH NO
SIGNIFICANT WEATHER AND/OR OBSTRUCTIONS TO VISIBILITY. N/A MEANS
CURRENT SKY AND/OR WEATHER CONDITIONS ARE NOT AVAILABLE.

MNZ060>063-068>070-231300-
   Twin Cities Metro

CITY           SKY/WX    TMP DP  RH WIND       PRES   REMARKS
TWIN CITIES    MOCLDY    74  69  85 SE5       29.92R
6HR MIN TEMP:  73; 6HR MAX TEMP:  82;

ST PAUL        PTCLDY    71  69  93 SE8       29.93R
CRYSTAL        PTCLDY    75  65  70 S7        29.90R
BLAINE         PTCLDY    75  68  78 S8        29.91S
LAKEVILLE      PTCLDY    70  66  88 S6        29.93R
EDEN PRAIRIE   PTCLDY    73  68  84 S7        29.92R
6HR MIN TEMP:  73; 6HR MAX TEMP:  80;

SOUTH ST PAUL  PTCLDY    72  67  83 SE5       29.93R
$$
MNZ001>005-007-008-013>017-022>024-027-028-231300-
   Northwest Minnesota

CITY           SKY/WX    TMP DP  RH WIND       PRES   REMARKS
HALLOCK          N/A     50  48  93 NW13      29.95R
ROSEAU         CLOUDY    52  46  82 NW10      29.90S
WARROAD        CLOUDY    54  48  82 NW8       29.90S
CROOKSTON      CLOUDY    50  48  93 N10       29.97R
FOSSTON        DRIZZLE   48  48 100 W5        29.96R
DETROIT LAKES  CLOUDY    52  50  93 N8G18     29.92F
MOORHEAD       CLOUDY    52  48  87 NW12      29.99R
PARK RAPIDS    LGT RAIN  56  54  93 W8        29.96R
MAHNOMEN       CLOUDY    50  49  96 NW3       29.96R
$$
MNZ006-009>011-018-025>026-231300-
   North Central Minnesota

CITY           SKY/WX    TMP DP  RH WIND       PRES   REMARKS
BAUDETTE       CLOUDY    54  54 100 W10       29.88R
FLAG ISLAND    CLOUDY    54  52  94 NW15      29.86R
INTL FALLS     CLOUDY    62  61  96 W12       29.82F FOG
6HR MIN TEMP:  62; 6HR MAX TEMP:  70; 6HR PCP:  0.07;

WASKISH        CLOUDY    55  55 100 W13       29.90R
BIG FORK       CLOUDY    66  64  94 SW8       29.87R
LONGVILLE      CLOUDY    64  64 100 W6        29.88R
GRAND RAPIDS   LGT RAIN  66  65  96 SW6       29.92R
CRANE LAKE     CLOUDY    70  64  83 CALM      29.81F
ORR            MOCLDY    66  63  88 CALM      29.79F
COOK           CLOUDY    66  64  94 S6        29.83R
WALKER         CLOUDY    58  57  97 W9        29.95R THUNDER
$$
MNZ012-019>021-037-231300-
   Northeast Minnesota

CITY           SKY/WX    TMP DP  RH WIND       PRES   REMARKS
DULUTH         CLOUDY    68  67  96 VRB3      29.89F
6HR MIN TEMP:  67; 6HR MAX TEMP:  75; 6HR PCP: TRACE;

ELY            CLOUDY    66  66 100 S9        29.83F
HIBBING        CLOUDY    65  64  97 SW6       29.88R
EVELETH        CLOUDY    65  61  88 S3        29.87S
DULUTH HARBOR  MOCLDY    64  63  94 S3        29.87F
SILVER BAY     CLOUDY    63  63 100 CALM      29.86F
GRAND MARAIS     N/A     63  63 100 CALM      29.86S
$$
MNZ029>031-032-039>041-046>048-054>057-064-231300-
   West Central Minnesota

CITY           SKY/WX    TMP DP  RH WIND       PRES   REMARKS
FERGUS FALLS   LGT RAIN  54  54 100 NE6       29.94F
WHEATON        LGT RAIN  54  52  94 N5        29.98R
MORRIS         DRIZZLE   55  55 100 N7        29.95F
ALEXANDRIA     CLOUDY    58  56  93 NW12      29.98R
ELBOW LAKE     CLOUDY    54  53  99 N8        29.95S
WADENA         CLOUDY    55  55 100 NW7       29.94F
GLENWOOD       CLOUDY    57  57 100 NW7       29.97R
APPLETON       CLOUDY    59  54  82 N8        29.95F
BENSON         CLOUDY    57  54  88 N6        29.97S
ORTONVILLE     LGT RAIN  55  54  94 N14       29.93F
MADISON        CLOUDY    61  61 100 N6        29.95S
WILLMAR        CLOUDY    63  61  94 NW18      29.97R
$$
MNZ033>034-036-042>043-049>051-058-059-231300-
   Central Minnesota

CITY           SKY/WX    TMP DP  RH WIND       PRES   REMARKS
ST CLOUD       MOCLDY    70  69  97 S6        29.89R
6HR MIN TEMP:  68; 6HR MAX TEMP:  76;

PAYNESVILLE    CLOUDY    66  64  93 NW5       29.94R
AITKIN         CLOUDY    64  63  94 W5        29.91R
PINE RIVER     TSTM      63  61  94 W3        29.97R
BRAINERD       CLOUDY    67  65  93 W7        29.92R
STAPLES        CLOUDY    59  59 100 NW7       29.93R
LITTLE FALLS   CLOUDY    64  63  94 CALM      29.92R
LITCHFIELD     MOCLDY    72  70  94 CALM      29.92R
BUFFALO        CLOUDY    73  66  81 SE5       29.91R
MAPLE LAKE     CLOUDY    72  69  91 CALM      29.91R
HUTCHINSON     PTCLDY    70  68  94 CALM      29.93R
$$
MNZ037-044-045-052-053-231300-
   East Central Minnesota

CITY           SKY/WX    TMP DP  RH WIND       PRES   REMARKS
PRINCETON      CLOUDY    73  70  88 S6        29.90R
MORA           PTCLDY    70  64  83 S7        29.91R
RUSH CITY      PTCLDY    70  66  87 S7        29.90R
MOOSE LAKE     MOCLDY    70  66  88 CALM      29.88R
CLOQUET        CLOUDY    70  66  88 SE3       29.89S
MCGREGOR       CLOUDY    68  63  83 W5        29.92R
$$
MNZ071>073-080-081-089-090-097-098-231300-
   Southwest Minnesota

CITY           SKY/WX    TMP DP  RH WIND       PRES   REMARKS
MONTEVIDEO     CLOUDY    57  57 100 N9        29.95F
GRANITE FALLS  CLOUDY    60  57  89 NW9G18    29.97S
CANBY          CLOUDY    58  55  89 N7        29.97S
MARSHALL       CLOUDY    58  55  90 N12       29.96R
REDWOOD FALLS  CLOUDY    66  62  87 NW10      29.93R
OLIVIA         CLOUDY    63  59  88 NW10G18   29.94R
PIPESTONE      CLOUDY    64  61  88 N6        29.95R
WORTHINGTON    MOCLDY    72  67  84 SW10G18   29.94R
JACKSON        PTCLDY    68  64  88 CALM      29.95R
TRACY          CLOUDY    60  57  91 NW14      29.96R
SLAYTON        CLOUDY    68  64  86 N14       29.95R
$$
MNZ065>067-074>077-082>085-091>093-231300-
   South Central Minnesota

CITY           SKY/WX    TMP DP  RH WIND       PRES   REMARKS
MANKATO        CLEAR     71  67  87 S7        29.94
NEW ULM        PTCLDY    70  66  88 S6        29.92R
ST JAMES       CLEAR     70  66  88 S6        29.94R
FAIRMONT       CLEAR     70  67  90 S10       29.94R
FARIBAULT      CLEAR     72  66  83 S7        29.95R
OWATONNA       CLEAR     72  66  83 S13G18    29.95R
WASECA         CLEAR     72  66  83 S10G17    29.96R
ALBERT LEA     CLEAR     72  68  88 S6        29.98R
$$
MNZ078>079-086>088-094>096-231300-
   Southeast Minnesota

CITY           SKY/WX    TMP DP  RH WIND       PRES   REMARKS
ROCHESTER      CLEAR     68  65  90 S7        30.00R
6HR MIN TEMP:  68; 6HR MAX TEMP:  76;

RED WING       PTCLDY    73  64  73 CALM      29.94R
STANTON        PTCLDY    73  67  81 S5        29.93R
DODGE CENTER   CLEAR     72  64  78 S12       29.98R
WINONA         CLEAR     70  66  88 SE3       29.99S
AUSTIN         CLEAR     68  64  88 S6        29.99R
PRESTON        CLEAR     66  63  90 S6        30.02S
$$
ABBREVIATIONS USED IN REMARKS
   TC - TEMPERATURES IN CELSIUS
  WCI - WIND CHILL INDEX
   HX - HEAT INDEX
  VSB - VISIBILITY
$$




USA.gov is the U.S. government's official web portal to all federal, state and local government web resources and services.